Wind_Speed
17 20 24 27 26 26 26 24 22 19 20 23 26 30 35 38 39 39 35 32 33 31 30 31 29 29 30 31 30 29 30 27
16 19 19 22 24 25 22 18 18 21 23 25 27 31 36 37 39 41 44 43 35 33 31 29 28 29 31 31 31 29 24 24
13 15 18 21 22 19 15 15 17 21 24 26 30 34 36 37 39 38 40 38 34 30 26 26 28 29 30 30 31 29 24 23
12 15 17 18 17 18 17 16 17 19 21 26 31 33 36 34 34 32 31 32 31 29 27 28 30 31 32 32 31 29 27 21
17 17 17 18 17 16 16 17 18 21 25 28 30 34 35 36 33 31 27 29 29 30 30 31 32 32 32 31 30 29 28 26
16 16 17 18 16 16 17 19 21 25 27 29 32 34 34 32 28 26 26 26 28 29 30 31 31 32 32 31 31 30 28 27
15 18 18 16 15 18 20 22 25 27 29 31 33 33 33 29 27 25 25 25 26 28 29 30 31 32 32 32 32 31 31 28
14 17 17 18 18 21 23 26 28 28 31 33 32 33 30 28 28 26 25 25 26 28 29 30 31 32 32 31 32 31 30 29
16 18 21 21 22 24 26 29 30 30 31 32 33 31 29 28 27 26 26 28 28 29 30 30 31 31 32 30 30 30 29 29
17 20 22 21 24 26 29 30 30 31 31 32 31 30 28 26 26 26 27 28 28 29 29 30 31 31 32 31 30 30 29 29
18 21 22 22 24 28 29 30 30 31 31 30 29 28 27 26 27 27 28 28 29 29 29 30 30 31 32 32 32 33 32 32
20 22 20 22 24 26 30 28 30 30 30 30 28 26 26 26 27 28 28 29 29 30 30 30 31 32 33 34 35 36 35 37
21 21 21 20 23 29 31 31 29 29 30 29 27 26 26 27 28 29 29 29 29 30 30 32 33 33 34 36 37 38 39 39
22 22 24 26 26 28 31 28 26 29 29 27 26 26 27 28 29 29 29 29 30 30 31 33 34 36 36 37 38 39 40 36
25 27 28 26 25 27 26 27 28 28 27 25 25 27 29 29 30 30 30 30 31 31 32 34 35 37 38 39 41 42 37 34
25 26 27 26 24 24 26 26 26 26 25 25 26 29 29 29 29 30 29 30 30 31 33 34 36 37 39 41 47 42 39 31
22 25 24 22 23 24 26 25 25 24 24 26 27 28 29 30 30 30 29 30 30 32 34 35 37 38 39 42 46 39 35 29
22 22 20 21 21 22 24 25 24 23 24 26 27 28 29 30 30 29 30 31 32 32 34 36 38 39 39 43 45 37 31 27
19 19 20 20 20 24 25 24 23 23 24 26 27 28 29 29 30 30 31 32 33 34 35 36 37 39 38 45 43 34 29 25
Wind_Direction
234 248 259 269 279 299 312 314 311 309 304 306 320 336 333 329 325 327 331 328 330 329 330 330 329 324 320 318 317 315 312 309
257 275 292 299 309 313 316 318 313 311 311 328 336 335 327 326 327 329 330 334 336 334 330 325 324 322 321 322 320 319 315 306
294 304 309 311 316 323 321 322 316 318 331 335 332 326 326 331 330 333 330 330 330 327 327 325 325 325 325 326 324 323 318 310
316 314 316 324 331 339 334 330 327 328 331 327 325 327 330 331 332 327 324 324 325 328 330 330 331 330 330 330 326 323 317 312
325 320 342 347 347 341 335 331 328 329 328 327 330 331 332 330 331 329 328 325 327 331 334 334 333 332 331 329 328 324 318 312
311 344 353 355 344 342 336 332 330 332 330 331 331 332 332 332 331 330 328 329 329 332 333 332 331 331 330 330 328 325 319 313
339 345 352 353 346 336 335 332 333 332 331 332 333 333 334 335 334 333 332 331 330 331 331 331 333 332 332 332 329 323 320 314
339 345 346 352 342 335 331 330 332 332 333 334 335 337 337 338 337 336 334 332 332 333 333 334 333 333 332 331 328 325 321 316
340 348 350 353 336 333 330 332 335 335 336 338 340 340 340 339 337 337 336 335 335 335 335 335 333 332 331 332 331 328 323 317
349 346 351 345 333 331 332 337 336 337 340 342 341 340 340 339 339 339 338 337 336 335 336 335 333 332 333 336 331 329 329 323
345 348 352 337 334 334 332 335 339 339 340 343 341 342 343 342 342 340 339 338 337 337 337 335 334 334 337 336 334 335 333 330
345 351 349 336 335 331 333 342 340 340 342 345 344 345 345 344 342 342 342 341 339 339 337 336 337 340 339 338 338 337 331 328
342 351 348 340 339 333 338 343 341 343 343 347 347 347 346 344 344 344 344 342 342 340 339 340 341 343 341 341 339 335 331 329
336 351 348 344 344 339 334 341 344 345 346 349 348 347 347 346 346 346 345 344 344 343 343 343 344 346 343 343 339 337 333 333
345 351 347 344 336 335 338 346 347 349 350 351 350 349 350 349 348 348 348 347 346 345 346 346 347 347 345 344 343 340 339 339
350 344 339 336 339 344 345 349 350 352 354 354 353 352 352 351 350 351 351 349 348 348 349 348 348 349 347 348 346 345 342 343
342 335 333 342 345 345 346 354 355 357 357 357 356 355 355 354 355 354 352 352 351 352 351 350 350 352 351 351 347 348 345 344
336 336 344 346 348 346 353 358 360 0 1 359 359 359 359 358 358 357 357 356 356 355 355 353 352 354 354 353 351 352 350 348
340 343 348 352 350 358 359 360 2 5 2 2 2 4 3 2 4 2 2 1 359 358 358 357 356 355 357 356 354 359 357 355
Height
3156 3153 3151 3148 3146 3143 3141 3139 3135 3133 3129 3125 3122 3117 3111 3105 3099 3095 3091 3087 3078 3072 3066 3058 3053 3050 3045 3041 3036 3032 3025 3021
3153 3152 3149 3147 3143 3141 3139 3135 3132 3129 3126 3122 3117 3113 3108 3102 3094 3088 3079 3074 3071 3065 3060 3055 3051 3046 3040 3035 3030 3025 3020 3015
3154 3151 3148 3144 3142 3140 3136 3133 3130 3126 3122 3118 3114 3110 3103 3097 3089 3083 3074 3069 3065 3062 3058 3052 3047 3041 3036 3029 3023 3017 3014 3010
3153 3150 3147 3144 3141 3137 3133 3130 3128 3125 3121 3117 3112 3106 3099 3093 3086 3081 3074 3067 3062 3057 3052 3047 3041 3035 3029 3023 3017 3012 3007 3006
3152 3149 3145 3141 3138 3135 3132 3129 3126 3122 3118 3113 3108 3102 3095 3088 3081 3075 3070 3063 3057 3052 3046 3041 3035 3029 3024 3018 3012 3007 3002 2998
3150 3145 3143 3141 3137 3134 3130 3126 3123 3119 3114 3109 3103 3097 3091 3084 3078 3072 3066 3060 3054 3048 3043 3037 3031 3025 3019 3013 3007 3002 2996 2992
3146 3143 3142 3140 3137 3132 3128 3124 3120 3115 3110 3105 3099 3093 3086 3080 3074 3068 3062 3057 3051 3045 3039 3033 3027 3020 3014 3008 3001 2995 2990 2986
3145 3143 3141 3138 3134 3130 3126 3121 3117 3112 3106 3100 3095 3088 3081 3075 3069 3064 3059 3053 3048 3041 3035 3029 3022 3016 3009 3003 2996 2990 2984 2979
3145 3141 3138 3136 3132 3127 3122 3117 3113 3108 3103 3096 3090 3084 3078 3072 3066 3061 3055 3049 3043 3037 3031 3025 3018 3011 3005 2999 2992 2985 2979 2973
3143 3140 3138 3135 3130 3125 3120 3114 3110 3104 3099 3093 3087 3081 3075 3070 3064 3058 3052 3046 3040 3034 3027 3020 3014 3007 3000 2993 2987 2980 2973 2966
3143 3141 3138 3133 3128 3123 3118 3112 3107 3101 3096 3091 3084 3078 3072 3067 3061 3055 3049 3043 3037 3030 3024 3017 3010 3003 2996 2988 2981 2973 2966 2960
3142 3140 3137 3131 3126 3121 3115 3110 3105 3099 3093 3088 3082 3076 3070 3065 3059 3053 3047 3040 3033 3027 3020 3013 3005 2998 2990 2983 2975 2967 2960 2953
3141 3140 3135 3130 3124 3118 3112 3108 3103 3097 3091 3085 3079 3074 3069 3063 3057 3051 3044 3037 3031 3023 3016 3008 3001 2994 2986 2978 2970 2962 2953 2944
3138 3137 3132 3126 3121 3116 3111 3107 3101 3096 3089 3084 3078 3073 3068 3061 3055 3049 3042 3035 3028 3020 3013 3005 2997 2989 2981 2973 2965 2956 2947 2938
3136 3133 3128 3124 3120 3115 3109 3104 3099 3093 3088 3082 3077 3071 3066 3060 3053 3047 3039 3032 3025 3017 3010 3002 2994 2986 2977 2968 2960 2950 2940 2932
3135 3131 3126 3122 3117 3113 3108 3104 3098 3092 3086 3081 3076 3070 3064 3058 3052 3045 3037 3030 3023 3015 3007 3000 2992 2983 2973 2963 2953 2942 2933 2926
3135 3131 3126 3121 3117 3112 3107 3103 3096 3091 3086 3081 3075 3070 3064 3057 3050 3043 3036 3029 3022 3014 3006 2997 2989 2981 2971 2961 2950 2939 2930 2923
3134 3129 3125 3121 3117 3112 3106 3100 3095 3090 3085 3080 3075 3069 3063 3056 3049 3042 3035 3027 3020 3013 3005 2996 2987 2978 2969 2960 2948 2937 2928 2921
3132 3128 3125 3120 3117 3110 3104 3099 3095 3090 3085 3080 3075 3069 3063 3056 3049 3042 3035 3027 3019 3011 3004 2995 2987 2977 2968 2959 2947 2936 2928 2920